Flag for U.S.A. Weather past 2 weeks in Madison, Wisconsin, U.S.A.

Now
64 °F

Fog.


Feels Like: 64 °F
Forecast: 64 / 83 °F
Wind: No wind

Location: Dane County Regional-Truax Field

Current Time: Aug 31, 2014 at 3:15:48 AM

Latest Report: Aug 31, 2014 at 2:53 AM


Visibility: 0 mi

Pressure: 29.89 "Hg

Humidity: 94%

Dew point: 62 °F

Location of MadisonLocation

Historic Weather in Madison — Graph

°F

Madison temperature yesterday

Maximum temperature yesterday: 80 °F (at 4:53 PM)
Minimum temperature yesterday: 67 °F (at 11:53 PM)
Average temperature yesterday: 73 °F

Past Weeks' High & Low Weather Summary

 TemperatureHumidityPressure
High89 °F (Aug 22, 5:53 PM)97% (Aug 21, 12:00 PM)30.18 "Hg (Aug 21, 12:00 PM)
Low57 °F (Aug 28, 5:53 AM)49% (Aug 20, 2:53 PM)29.65 "Hg (Aug 19, 3:53 AM)
Average73 °F79%29.93 "Hg
* Reported Aug 16 1:53 AM — Aug 31 1:53 AM, Madison, Weather by CustomWeather, © 2014

Note: Actual official high and low records may vary slightly from our data, if they occured in-between our weather recording intervals... More about our weather records

Advertising

Madison weather history for previous 24 hours

 ConditionsComfort  
Time TempWeatherWind HumidityBarometerVisibility
1:53 AM
Aug 31
66 °FFog.No wind93%29.89 "Hg3 mi
1:00 AM65 °FFog.No wind97%29.91 "Hg1 mi
11:53 PM
Aug 30
67 °FClear.No wind93%29.89 "Hg9 mi
10:53 PM68 °FPartly cloudy.6 mph90%29.89 "Hg10 mi
9:53 PM69 °FPassing clouds.No wind90%29.87 "Hg10 mi
8:53 PM69 °FPassing clouds.No wind87%29.86 "Hg10 mi
7:53 PM75 °FScattered clouds.No wind71%29.84 "Hg10 mi
6:53 PM78 °FPassing clouds.3 mph66%29.82 "Hg10 mi
5:53 PM80 °FPassing clouds.No wind60%29.81 "Hg10 mi
4:53 PM80 °FScattered clouds.7 mph64%29.80 "Hg10 mi
3:53 PM79 °FScattered clouds.9 mph67%29.80 "Hg10 mi
2:53 PM77 °FLight rain. Partly sunny.9 mph74%29.79 "Hg10 mi
1:53 PM77 °FBroken clouds.9 mph71%29.79 "Hg10 mi
12:53 PM75 °FBroken clouds.6 mph79%29.78 "Hg10 mi
11:53 AM70 °FLight rain. Fog.6 mph90%29.79 "Hg2 mi
10:53 AM70 °FLight rain. Fog.8 mph90%29.78 "Hg5 mi
9:53 AM72 °FLight rain. Mostly cloudy.12 mph81%29.77 "Hg10 mi
8:53 AM73 °FCloudy.9 mph81%29.76 "Hg10 mi
7:53 AM72 °FPartly sunny.12 mph84%29.76 "Hg10 mi
6:53 AM72 °FLight rain. Mostly cloudy.8 mph87%29.75 "Hg7 mi
5:53 AM72 °FMostly cloudy.7 mph87%29.75 "Hg10 mi
4:53 AM72 °FMostly cloudy.7 mph87%29.76 "Hg10 mi
4:01 AM72 °FPassing clouds.8 mph87%29.78 "Hg10 mi
Weather by CustomWeather, © 2014

See weather overviewHow to use our weather pages